TimeEDT,TemperatureF,Dew PointF,Humidity,Sea Level PressureIn,VisibilityMPH,Wind Direction,Wind SpeedMPH,Gust SpeedMPH,PrecipitationIn,Events,Conditions,WindDirDegrees,DateUTC
12:10 AM,57.2,-9999,N/A,29.89,0.2,Calm,Calm,-,0.00,,Overcast,0,2012-10-03 04:10:00
12:30 AM,57.2,-9999,N/A,29.89,0.2,Calm,Calm,-,0.00,,Overcast,0,2012-10-03 04:30:00
12:50 AM,57.2,-9999,N/A,29.89,0.2,SW,9.2,-,0.00,,Overcast,230,2012-10-03 04:50:00
1:10 AM,57.2,-9999,N/A,29.88,0.2,Calm,Calm,-,0.00,,Overcast,0,2012-10-03 05:10:00
1:30 AM,59.0,-9999,N/A,29.90,1.8,South,3.5,-,0.00,,Overcast,190,2012-10-03 05:30:00
1:50 AM,59.0,-9999,N/A,29.91,2.5,Calm,Calm,-,0.00,,Overcast,0,2012-10-03 05:50:00
2:10 AM,59.0,-9999,N/A,29.91,2.5,Calm,Calm,-,0.00,,Overcast,0,2012-10-03 06:10:00
2:30 AM,59.0,-9999,N/A,29.92,3.0,Calm,Calm,-,0.00,,Overcast,0,2012-10-03 06:30:00
2:50 AM,60.8,-9999,N/A,29.93,3.0,Calm,Calm,-,0.00,,Overcast,0,2012-10-03 06:50:00
3:10 AM,60.8,-9999,N/A,29.93,4.0,Calm,Calm,-,0.00,,Overcast,0,2012-10-03 07:10:00
3:30 AM,59.0,-9999,N/A,29.94,3.0,Calm,Calm,-,0.00,,Overcast,0,2012-10-03 07:30:00
3:50 AM,59.0,-9999,N/A,29.94,4.0,Calm,Calm,-,0.00,,Overcast,0,2012-10-03 07:50:00
4:10 AM,59.0,-9999,N/A,29.94,4.0,SE,3.5,-,0.00,,Overcast,130,2012-10-03 08:10:00
4:30 AM,59.0,-9999,N/A,29.94,4.0,ESE,4.6,-,0.00,,Overcast,110,2012-10-03 08:30:00
5:10 AM,59.0,-9999,N/A,29.95,4.0,SE,4.6,-,0.00,,Mostly Cloudy,140,2012-10-03 09:10:00
5:30 AM,59.0,-9999,N/A,29.95,5.0,SE,4.6,-,0.00,,Overcast,140,2012-10-03 09:30:00
5:50 AM,59.0,-9999,N/A,29.96,5.0,SSE,8.1,-,0.00,,Overcast,160,2012-10-03 09:50:00
6:10 AM,59.0,-9999,N/A,29.97,5.0,South,8.1,-,0.00,,Overcast,180,2012-10-03 10:10:00
6:50 AM,57.2,-9999,N/A,29.98,5.0,SSW,5.8,-,0.00,,Overcast,210,2012-10-03 10:50:00
7:10 AM,57.2,-9999,N/A,29.98,9.0,SSW,5.8,-,0.00,,Overcast,210,2012-10-03 11:10:00
7:30 AM,57.2,57.2,100,29.99,10.0,SSW,5.8,-,0.00,,Overcast,200,2012-10-03 11:30:00
8:10 AM,57.2,57.2,100,30.00,10.0,South,6.9,-,0.00,,Overcast,190,2012-10-03 12:10:00
8:30 AM,57.2,57.2,100,30.00,10.0,South,6.9,-,0.00,,Overcast,180,2012-10-03 12:30:00
8:50 AM,57.2,57.2,100,30.01,10.0,South,6.9,-,0.00,,Overcast,190,2012-10-03 12:50:00
9:10 AM,57.2,57.2,100,30.02,10.0,South,8.1,-,0.00,,Overcast,190,2012-10-03 13:10:00
9:30 AM,57.2,57.2,100,30.03,10.0,South,9.2,-,0.00,,Overcast,180,2012-10-03 13:30:00
9:50 AM,57.2,57.2,100,30.03,10.0,South,8.1,-,0.00,,Overcast,190,2012-10-03 13:50:00
10:10 AM,57.2,57.2,100,30.04,10.0,SSW,10.4,-,0.00,,Overcast,200,2012-10-03 14:10:00
10:30 AM,57.2,55.4,94,30.04,10.0,South,11.5,-,0.00,,Overcast,190,2012-10-03 14:30:00
10:50 AM,57.2,55.4,94,30.05,10.0,South,6.9,-,0.00,,Overcast,180,2012-10-03 14:50:00
11:10 AM,57.2,55.4,94,30.05,10.0,South,9.2,-,0.00,,Overcast,180,2012-10-03 15:10:00
11:30 AM,55.4,55.4,100,30.05,7.0,SW,8.1,-,0.00,,Overcast,220,2012-10-03 15:30:00
11:50 AM,57.2,55.4,94,30.05,10.0,SSW,12.7,-,0.00,,Overcast,210,2012-10-03 15:50:00
12:10 PM,57.2,55.4,94,30.05,10.0,SSW,10.4,-,0.00,,Overcast,210,2012-10-03 16:10:00
12:30 PM,57.2,53.6,88,30.06,10.0,SSW,12.7,18.4,0.00,,Overcast,210,2012-10-03 16:30:00
12:50 PM,59.0,53.6,82,30.06,10.0,SW,11.5,-,0.00,,Overcast,220,2012-10-03 16:50:00
1:10 PM,59.0,53.6,82,30.07,10.0,SSW,10.4,-,0.00,,Overcast,210,2012-10-03 17:10:00
1:30 PM,59.0,53.6,82,30.06,10.0,SSW,8.1,-,0.00,,Overcast,200,2012-10-03 17:30:00
1:50 PM,60.8,53.6,77,30.06,10.0,SSW,9.2,-,0.00,,Overcast,200,2012-10-03 17:50:00
2:10 PM,60.8,53.6,77,30.05,10.0,South,9.2,-,0.00,,Overcast,190,2012-10-03 18:10:00
2:30 PM,60.8,53.6,77,30.05,10.0,South,8.1,-,0.00,,Overcast,190,2012-10-03 18:30:00
2:50 PM,62.6,53.6,72,30.05,10.0,SSW,10.4,-,0.00,,Overcast,200,2012-10-03 18:50:00
3:10 PM,62.6,53.6,72,30.04,10.0,South,9.2,-,0.00,,Overcast,180,2012-10-03 19:10:00
3:30 PM,62.6,53.6,72,30.05,10.0,South,11.5,-,0.00,,Overcast,190,2012-10-03 19:30:00
3:50 PM,62.6,53.6,72,30.05,10.0,South,10.4,-,0.00,,Overcast,190,2012-10-03 19:50:00
4:10 PM,62.6,53.6,72,30.05,10.0,South,8.1,-,0.00,,Overcast,180,2012-10-03 20:10:00
4:30 PM,62.6,53.6,72,30.05,10.0,South,9.2,-,0.00,,Overcast,170,2012-10-03 20:30:00
4:50 PM,64.4,53.6,68,30.05,10.0,South,10.4,-,0.00,,Mostly Cloudy,170,2012-10-03 20:50:00
5:10 PM,64.4,53.6,68,30.05,10.0,South,8.1,-,0.00,,Scattered Clouds,170,2012-10-03 21:10:00
5:30 PM,64.4,53.6,68,30.05,10.0,South,9.2,-,0.00,,Clear,170,2012-10-03 21:30:00
5:50 PM,64.4,53.6,68,30.06,10.0,SSE,8.1,-,0.00,,Clear,160,2012-10-03 21:50:00
6:10 PM,62.6,53.6,72,30.06,10.0,South,6.9,-,0.00,,Clear,170,2012-10-03 22:10:00
6:50 PM,62.6,53.6,72,30.07,10.0,SSE,6.9,-,0.00,,Clear,160,2012-10-03 22:50:00
7:10 PM,60.8,53.6,77,30.06,10.0,SSE,5.8,-,0.00,,Clear,160,2012-10-03 23:10:00
7:30 PM,60.8,53.6,77,30.07,10.0,SSE,6.9,-,0.00,,Clear,160,2012-10-03 23:30:00
7:50 PM,60.8,53.6,77,30.08,10.0,SSE,6.9,-,0.00,,Scattered Clouds,160,2012-10-03 23:50:00
8:10 PM,60.8,53.6,77,30.07,10.0,SSE,6.9,-,0.00,,Mostly Cloudy,160,2012-10-04 00:10:00
8:30 PM,60.8,53.6,77,30.07,10.0,SSE,5.8,-,0.00,,Partly Cloudy,160,2012-10-04 00:30:00
8:50 PM,59.0,53.6,82,30.08,10.0,SSE,6.9,-,0.00,,Clear,160,2012-10-04 00:50:00
9:10 PM,59.0,53.6,82,30.09,10.0,South,8.1,-,0.00,,Clear,170,2012-10-04 01:10:00
9:30 PM,59.0,53.6,82,30.09,10.0,South,8.1,-,0.00,,Clear,170,2012-10-04 01:30:00
9:50 PM,57.2,53.6,88,30.10,10.0,SSE,6.9,-,0.00,,Clear,160,2012-10-04 01:50:00
10:10 PM,57.2,51.8,82,30.10,10.0,SSE,6.9,-,0.00,,Clear,160,2012-10-04 02:10:00
10:30 PM,57.2,51.8,82,30.10,10.0,SSE,6.9,-,0.00,,Clear,160,2012-10-04 02:30:00
10:50 PM,55.4,53.6,94,30.10,10.0,SSE,6.9,-,0.00,,Clear,150,2012-10-04 02:50:00
11:10 PM,55.4,53.6,94,30.10,10.0,SSE,6.9,-,0.00,,Clear,150,2012-10-04 03:10:00
11:30 PM,55.4,53.6,94,30.11,10.0,SSE,8.1,-,0.00,,Clear,150,2012-10-04 03:30:00
11:50 PM,55.4,53.6,94,30.12,10.0,SSE,8.1,-,0.00,,Clear,150,2012-10-04 03:50:00